Terug naar catalogus

ONEWEB-0249

ActiefCommunicatiePO
NORAD 48967·PAYLOAD·🇬🇧 United Kingdom

Gelanceerd Jul 1, 2021 vanaf Vostochny Cosmodrome

Loading…

Volgende Passages (komende 24 uur)

TLE

VersSource: CelesTrak SupGP

Epoch: Sep 14, 2026, 16:09 UTC

1 48967C 21060A   26257.67307127  .00001946  00000+0  50969-2 0  2575
2 48967  87.9146 211.0098 0002029  77.5059  16.3118 13.16586910    19

Volg ONEWEB-0249 in realtime met AllMySat

Download on the App Store